Baton Rouge, LA

10:48 PM CDT on July 27, 2017 (GMT -0500)
Baton Rouge Metro-Ryan

Weather History for KBTR - April, 2012

Change the Weather History Date:

Friday, April 13, 2012

  Actual Average Record
Temperature  
Mean Temperature 72 °F 67 °F  
Max Temperature 84 °F 79 °F 88 °F (1954)
Min Temperature 59 °F 56 °F 31 °F (1940)
Degree Days  
Heating Degree Days 0 2  
Month to date heating degree days 0 34  
Since 1 July heating degree days 1116 1536  
Cooling Degree Days 7 4  
Month to date cooling degree days 84 46  
Year to date cooling degree days 326 135  
Growing Degree Days 21 (Base 50)    
Moisture  
Dew Point 62 °F    
Average Humidity 74    
Maximum Humidity 97    
Minimum Humidity 51    
Precipitation  
Precipitation 0.00 in 0.15 in 4.53 in (1969)
Month to date precipitation 2.92 2.02  
Year to date precipitation 22.65 17.19  
Snow  
Snow 0.00 in - - ()
Month to date snowfall 0.0  
Since 1 July snowfall 0.0  
Snow Depth 0.00 in    
Sea Level Pressure  
Sea Level Pressure 30.08 in    
Wind  
Wind Speed 8 mph (ESE)    
Max Wind Speed 16 mph    
Max Gust Speed 22 mph    
Visibility 10 miles    
Events      
T = Trace of Precipitation, MM = Missing Value Source: NWS Daily Summary

Daily Weather History Graph

Daily Weather History Graph

Search for Another Location

Airport or City:

Trip Planner

Search our weather history database for the weather conditions in past years. The results will help you decide how hot, cold, wet, or windy it might be!

Date:

Astronomy

Apr. 13, 2012 Rise Set
Actual Time 6:38 AM CDT 7:31 PM CDT
Civil Twilight 6:14 AM CDT 7:56 PM CDT
Nautical Twilight 5:45 AM CDT 8:25 PM CDT
Astronomical Twilight 5:15 AM CDT 8:55 PM CDT
Moon 1:53 AM CDT (4/13) 12:49 PM CDT (4/13)
Length of Visible Light 13h 41m
Length of Day
12h 52m
Waning Gibbous, 47% of the Moon is Illuminated
Apr 13
Waning Gibbous
Apr 21
New
Apr 29
First Quarter
May 5
Full
May 12
Last Quarter

Hourly Weather History & Observations

Time (CDT) Temp. Heat Index Dew Point Humidity Pressure Visibility Wind Dir Wind Speed Gust Speed Precip Events Conditions
12:53 AM 62.1 °F - 57.9 °F 86% 30.09 in 10.0 mi ESE 3.5 mph - N/A   Clear
1:53 AM 62.1 °F - 59.0 °F 90% 30.08 in 10.0 mi ESE 3.5 mph - N/A   Clear
2:53 AM 61.0 °F - 59.0 °F 93% 30.07 in 10.0 mi ENE 3.5 mph - N/A   Clear
3:53 AM 61.0 °F - 59.0 °F 93% 30.07 in 10.0 mi Calm Calm - N/A   Clear
4:53 AM 60.1 °F - 57.9 °F 93% 30.07 in 10.0 mi NE 3.5 mph - N/A   Clear
5:53 AM 60.1 °F - 57.9 °F 93% 30.07 in 10.0 mi East 3.5 mph - N/A   Clear
6:53 AM 60.1 °F - 57.9 °F 93% 30.08 in 7.0 mi East 4.6 mph - N/A   Clear
7:53 AM 64.0 °F - 62.1 °F 93% 30.09 in 9.0 mi ESE 8.1 mph - N/A   Clear
8:53 AM 70.0 °F - 64.9 °F 84% 30.11 in 9.0 mi ESE 6.9 mph - N/A   Partly Cloudy
9:53 AM 75.0 °F - 64.0 °F 69% 30.12 in 10.0 mi SE 10.4 mph - N/A   Clear
10:53 AM 75.9 °F - 64.0 °F 67% 30.12 in 10.0 mi SE 11.5 mph - N/A   Scattered Clouds
11:53 AM 78.1 °F - 64.0 °F 62% 30.11 in 10.0 mi SE 12.7 mph - N/A   Scattered Clouds
12:53 PM 81.0 °F 82.5 °F 64.0 °F 56% 30.10 in 10.0 mi SE 10.4 mph - N/A   Scattered Clouds
1:53 PM 81.0 °F 82.2 °F 63.0 °F 54% 30.08 in 10.0 mi South 9.2 mph 19.6 mph N/A   Scattered Clouds
2:53 PM 81.0 °F 82.2 °F 63.0 °F 54% 30.08 in 10.0 mi South 9.2 mph - N/A   Mostly Cloudy
3:53 PM 80.1 °F 81.2 °F 62.1 °F 54% 30.06 in 10.0 mi SSE 9.2 mph - N/A   Mostly Cloudy
4:53 PM 82.0 °F 83.0 °F 62.1 °F 51% 30.05 in 10.0 mi SSE 12.7 mph - N/A   Scattered Clouds
5:53 PM 79.0 °F - 63.0 °F 58% 30.05 in 10.0 mi SE 9.2 mph - N/A   Clear
6:53 PM 75.9 °F - 63.0 °F 64% 30.05 in 10.0 mi ESE 8.1 mph - N/A   Scattered Clouds
7:53 PM 73.0 °F - 63.0 °F 71% 30.05 in 10.0 mi ESE 8.1 mph - N/A   Scattered Clouds
8:53 PM 73.0 °F - 63.0 °F 71% 30.08 in 10.0 mi SE 8.1 mph - N/A   Scattered Clouds
9:53 PM 72.0 °F - 63.0 °F 73% 30.11 in 10.0 mi SE 8.1 mph - N/A   Clear
10:53 PM 71.1 °F - 62.1 °F 73% 30.11 in 10.0 mi ESE 9.2 mph - N/A   Clear
11:53 PM 68.0 °F - 62.1 °F 81% 30.09 in 10.0 mi ESE 8.1 mph - N/A   Clear